• In Romania
  • List of Countries
  • For 7 days
  • Water Temperature
  • Satellite Maps
  • Weather Map
  • Weather Widgets
  • user-avatar
    Login

    Hourly Weather Kotovka

    Today, 19 September, Wednesday

    Time Temperature Precipitation Wind Pressure Humidity
    00:00 +9°C° 0 mm 3 mps 741 mmHg 89%
    01:00 +9°C° 0 mm 3 mps 741 mmHg 90%
    02:00 +8°C° 0 mm 3 mps 741 mmHg 91%
    03:00 +8°C° 0 mm 3 mps 741 mmHg 92%
    04:00 +8°C° 0 mm 3 mps 741 mmHg 92%
    05:00 +8°C° 0 mm 3 mps 742 mmHg 93%
    06:00 +8°C° 0 mm 3 mps 742 mmHg 93%
    07:00 +9°C° 0 mm 3 mps 742 mmHg 88%
    08:00 +11°C° 0 mm 4 mps 742 mmHg 83%
    09:00 +12°C° 0 mm 4 mps 742 mmHg 78%
    10:00 +14°C° 0 mm 5 mps 742 mmHg 72%
    11:00 +16°C° 0 mm 5 mps 742 mmHg 67%
    12:00 +17°C° 0 mm 6 mps 742 mmHg 62%
    13:00 +19°C° 0 mm 6 mps 741 mmHg 62%
    14:00 +20°C° 0 mm 6 mps 741 mmHg 62%
    15:00 +21°C° 0 mm 6 mps 741 mmHg 62%
    16:00 +20°C° 0 mm 5 mps 740 mmHg 66%
    17:00 +19°C° 0 mm 5 mps 740 mmHg 71%
    18:00 +19°C° 0 mm 4 mps 740 mmHg 75%
    19:00 +18°C° 0 mm 4 mps 740 mmHg 78%
    20:00 +17°C° 0 mm 4 mps 740 mmHg 80%
    21:00 +15°C° 0 mm 4 mps 740 mmHg 83%
    22:00 +15°C° 0 mm 4 mps 740 mmHg 85%
    23:00 +14°C° 0 mm 4 mps 740 mmHg 87%

    Tomorrow, 20 September, Thursday

    Time Temperature Precipitation Wind Pressure Humidity
    00:00 +14°C° 0 mm 4 mps 740 mmHg 89%
    01:00 +14°C° 0 mm 4 mps 740 mmHg 91%
    02:00 +13°C° 0 mm 4 mps 740 mmHg 92%
    03:00 +13°C° 0 mm 4 mps 740 mmHg 94%
    04:00 +13°C° 0 mm 3 mps 740 mmHg 95%
    05:00 +13°C° 0 mm 3 mps 740 mmHg 95%
    06:00 +13°C° 0 mm 3 mps 740 mmHg 95%
    07:00 +14°C° 0 mm 4 mps 740 mmHg 91%
    08:00 +15°C° 0 mm 4 mps 740 mmHg 87%
    09:00 +18°C° 0 mm 4 mps 740 mmHg 83%
    10:00 +19°C° 0 mm 5 mps 740 mmHg 78%
    11:00 +21°C° 0 mm 5 mps 740 mmHg 72%
    12:00 +22°C° 0 mm 5 mps 740 mmHg 66%
    13:00 +23°C° 0 mm 5 mps 740 mmHg 65%
    14:00 +23°C° 0 mm 5 mps 740 mmHg 63%
    15:00 +25°C° 0 mm 5 mps 740 mmHg 62%
    16:00 +23°C° 0 mm 5 mps 740 mmHg 67%
    17:00 +22°C° 0 mm 4 mps 740 mmHg 71%
    18:00 +20°C° 0 mm 3 mps 741 mmHg 76%
    19:00 +19°C° 0 mm 3 mps 741 mmHg 79%
    20:00 +18°C° 0 mm 3 mps 741 mmHg 82%
    21:00 +17°C° 0 mm 3 mps 741 mmHg 85%
    22:00 +16°C° 0 mm 2 mps 741 mmHg 86%
    23:00 +16°C° 0 mm 2 mps 742 mmHg 87%

    Day after tomorrow, 21 September, Friday

    Time Temperature Precipitation Wind Pressure Humidity
    00:00 +15°C° 0 mm 2 mps 742 mmHg 88%
    01:00 +15°C° 0 mm 2 mps 742 mmHg 89%
    02:00 +14°C° 0 mm 1 mps 742 mmHg 90%
    03:00 +14°C° 0 mm 1 mps 742 mmHg 91%
    04:00 +14°C° 0 mm 1 mps 743 mmHg 91%
    05:00 +13°C° 0 mm 1 mps 743 mmHg 91%
    06:00 +13°C° 0 mm 1 mps 743 mmHg 91%
    07:00 +15°C° 0 mm 1 mps 743 mmHg 86%
    08:00 +16°C° 0 mm 1 mps 744 mmHg 81%
    09:00 +18°C° 0 mm 1 mps 744 mmHg 76%
    10:00 +20°C° 0 mm 1 mps 744 mmHg 70%
    11:00 +21°C° 0 mm 1 mps 744 mmHg 64%
    12:00 +23°C° 0 mm 1 mps 744 mmHg 59%
    13:00 +23°C° 0 mm 1 mps 744 mmHg 56%
    14:00 +24°C° 0 mm 1 mps 744 mmHg 54%
    15:00 +24°C° 0 mm 1 mps 744 mmHg 51%
    16:00 +23°C° 0 mm 1 mps 744 mmHg 56%
    17:00 +22°C° 0 mm 1 mps 744 mmHg 61%
    18:00 +21°C° 0 mm 1 mps 744 mmHg 65%
    19:00 +20°C° 0 mm 1 mps 744 mmHg 68%
    20:00 +19°C° 0 mm 1 mps 744 mmHg 70%
    21:00 +18°C° 0 mm 1 mps 744 mmHg 73%
    22:00 +17°C° 0 mm 2 mps 744 mmHg 74%
    23:00 +17°C° 0 mm 2 mps 744 mmHg 76%

    22 September, Saturday

    Time Temperature Precipitation Wind Pressure Humidity
    00:00 +16°C° 0 mm 2 mps 744 mmHg 77%
    01:00 +16°C° 0 mm 2 mps 744 mmHg 78%
    02:00 +15°C° 0 mm 2 mps 744 mmHg 80%
    03:00 +15°C° 0 mm 2 mps 744 mmHg 81%
    04:00 +14°C° 0 mm 3 mps 744 mmHg 81%
    05:00 +13°C° 0 mm 3 mps 744 mmHg 82%
    06:00 +13°C° 0 mm 3 mps 744 mmHg 83%
    07:00 +14°C° 0 mm 3 mps 744 mmHg 79%
    08:00 +17°C° 0 mm 3 mps 744 mmHg 74%
    09:00 +18°C° 0 mm 4 mps 743 mmHg 70%
    10:00 +20°C° 0 mm 4 mps 743 mmHg 65%
    11:00 +21°C° 0 mm 4 mps 743 mmHg 61%
    12:00 +23°C° 0 mm 5 mps 743 mmHg 56%
    13:00 +23°C° 0 mm 5 mps 743 mmHg 55%
    14:00 +25°C° 0 mm 5 mps 742 mmHg 54%
    15:00 +25°C° 0 mm 5 mps 742 mmHg 53%
    16:00 +23°C° 0 mm 4 mps 742 mmHg 58%
    17:00 +22°C° 0 mm 4 mps 741 mmHg 63%
    18:00 +20°C° 0 mm 3 mps 741 mmHg 68%
    19:00 +20°C° 0 mm 3 mps 741 mmHg 69%
    20:00 +19°C° 0 mm 3 mps 741 mmHg 70%
    21:00 +18°C° 0 mm 4 mps 741 mmHg 71%
    22:00 +18°C° 0 mm 3 mps 741 mmHg 72%
    23:00 +17°C° 0 mm 3 mps 740 mmHg 72%

    23 September, Sunday

    Time Temperature Precipitation Wind Pressure Humidity
    00:00 +17°C° 0 mm 3 mps 740 mmHg 72%
    01:00 +17°C° 0 mm 3 mps 740 mmHg 73%
    02:00 +16°C° 0 mm 3 mps 740 mmHg 74%
    03:00 +16°C° 0 mm 3 mps 739 mmHg 74%
    04:00 +16°C° 0 mm 3 mps 739 mmHg 75%
    05:00 +16°C° 0 mm 3 mps 739 mmHg 75%
    06:00 +14°C° 0 mm 3 mps 739 mmHg 75%
    07:00 +17°C° 0 mm 3 mps 738 mmHg 71%
    08:00 +18°C° 0 mm 4 mps 738 mmHg 68%
    09:00 +19°C° 0 mm 4 mps 738 mmHg 64%
    10:00 +20°C° 0 mm 4 mps 738 mmHg 60%
    11:00 +22°C° 0 mm 5 mps 738 mmHg 56%
    12:00 +23°C° 0 mm 5 mps 738 mmHg 52%
    13:00 +23°C° 0 mm 5 mps 737 mmHg 53%
    14:00 +23°C° 0 mm 5 mps 737 mmHg 53%
    15:00 +23°C° 0 mm 5 mps 737 mmHg 53%
    16:00 +22°C° 0.1 mm 4 mps 736 mmHg 57%
    17:00 +21°C° 0.1 mm 4 mps 736 mmHg 62%
    18:00 +20°C° 0.1 mm 4 mps 736 mmHg 66%
    19:00 +19°C° 0.5 mm 4 mps 736 mmHg 69%
    20:00 +18°C° 0.5 mm 4 mps 737 mmHg 72%
    21:00 +17°C° 0.5 mm 4 mps 737 mmHg 76%
    22:00 +15°C° 0.7 mm 4 mps 737 mmHg 80%
    23:00 +14°C° 0.7 mm 4 mps 737 mmHg 85%

    24 September, Monday

    Time Temperature Precipitation Wind Pressure Humidity
    00:00 +13°C° 0.7 mm 4 mps 737 mmHg 90%
    01:00 +13°C° 0.5 mm 4 mps 738 mmHg 90%
    02:00 +12°C° 0.5 mm 4 mps 738 mmHg 91%
    03:00 +12°C° 0.5 mm 4 mps 738 mmHg 91%
    04:00 +11°C° 0 mm 4 mps 738 mmHg 91%
    05:00 +11°C° 0 mm 4 mps 739 mmHg 90%
    06:00 +11°C° 0 mm 4 mps 739 mmHg 90%
    07:00 +11°C° 0 mm 4 mps 739 mmHg 89%
    08:00 +11°C° 0 mm 4 mps 739 mmHg 88%
    09:00 +11°C° 0 mm 4 mps 740 mmHg 88%
    10:00 +12°C° 0 mm 4 mps 740 mmHg 86%
    11:00 +13°C° 0 mm 4 mps 740 mmHg 83%
    12:00 +14°C° 0 mm 3 mps 740 mmHg 81%
    13:00 +14°C° 0 mm 3 mps 740 mmHg 80%
    14:00 +16°C° 0 mm 3 mps 740 mmHg 78%
    15:00 +17°C° 0 mm 3 mps 739 mmHg 76%
    16:00 +17°C° 0 mm 3 mps 739 mmHg 79%
    17:00 +16°C° 0 mm 2 mps 739 mmHg 82%
    18:00 +16°C° 0 mm 2 mps 739 mmHg 85%
    19:00 +15°C° 0 mm 2 mps 739 mmHg 88%
    20:00 +15°C° 0 mm 2 mps 739 mmHg 90%
    21:00 +14°C° 0 mm 2 mps 739 mmHg 92%
    22:00 +14°C° 0 mm 2 mps 739 mmHg 92%
    23:00 +14°C° 0 mm 2 mps 739 mmHg 91%
    Show more